This is the latest recevied weather packets stored in our database for station/object G0TRT-13. If no packets are shown the sender has not sent any weather packets the latest 10 day(s).
| Time | Temp. | Humidity | Pressure | Rain* | Wind** | Luminosity | Snow |
|---|---|---|---|---|---|---|---|
| 1777475543 | 18.89° C | 33% | 1020.3 hPa | 0 mm | - | - | - |
| 1777475239 | 18.89° C | 32% | 1020.5 hPa | 0 mm | - | - | - |
| 1777474940 | 18.89° C | 33% | 1020.3 hPa | 0 mm | - | - | - |
| 1777474638 | 18.33° C | 33% | 1020.5 hPa | 0 mm | - | - | - |
| 1777474338 | 18.33° C | 33% | 1020.5 hPa | 0 mm | - | - | - |
| 1777474039 | 18.89° C | 33% | 1020.5 hPa | 0 mm | - | - | - |
| 1777473739 | 18.33° C | 34% | 1020.5 hPa | 0 mm | - | - | - |
| 1777473436 | 18.33° C | 32% | 1020.6 hPa | 0 mm | - | - | - |
| 1777473136 | 18.33° C | 33% | 1020.5 hPa | 0 mm | - | - | - |
| 1777472835 | 18.33° C | 33% | 1020.6 hPa | 0 mm | - | - | - |
| 1777472536 | 18.33° C | 34% | 1020.6 hPa | 0 mm | - | - | - |
| 1777472234 | 18.33° C | 33% | 1020.6 hPa | 0 mm | - | - | - |
| 1777471933 | 18.33° C | 33% | 1020.7 hPa | 0 mm | - | - | - |
| 1777471634 | 18.33° C | 36% | 1020.8 hPa | 0 mm | - | - | - |
| 1777471334 | 18.33° C | 35% | 1020.7 hPa | 0 mm | - | - | - |
| 1777471033 | 18.33° C | 35% | 1020.9 hPa | 0 mm | - | - | - |
| 1777470728 | 18.33° C | 36% | 1020.9 hPa | 0 mm | - | - | - |
| 1777470428 | 18.33° C | 35% | 1020.9 hPa | 0 mm | - | - | - |
| 1777470127 | 18.33° C | 37% | 1021.1 hPa | 0 mm | - | - | - |
| 1777469827 | 18.33° C | 39% | 1021.1 hPa | 0 mm | - | - | - |
| 1777469528 | 17.78° C | 35% | 1021.1 hPa | 0 mm | - | - | - |
| 1777469229 | 18.33° C | 35% | 1021.1 hPa | 0 mm | - | - | - |
| 1777468927 | 18.33° C | 35% | 1021.1 hPa | 0 mm | - | - | - |
| 1777468626 | 18.33° C | 36% | 1021.1 hPa | 0 mm | - | - | - |
| 1777468323 | 18.33° C | 36% | 1021.1 hPa | 0 mm | - | - | - |
* Rain latest hour (hover to see other rain measurements)
** Current wind speed in m/s (hover to see current wind gust speed)